Content
SEND FEEDBACK

Daily
Averages
Monthly
Summary
French Polynesia

HITIAA, FRENCH POLYNESIA


Home > Oceania > French Polynesia
Elevation: 7 feet     Latitude: 17 33S     Longitude: 149 37W

WEATHER
 
SELECT A DAY
Number of Records: 208,134;   Date Range: 6/30/96 - 7/23/14
 
SHARE

PRINT THIS DATA

[ ← Previous Day ]
WEATHER ALMANAC - FEBRUARY 3, 2013
[ Next Day → ]
[ °C ]   °F
Weather ElementAverageHighLow
Temperature81.2 °F86 °F (11:30 am)77 °F (1:00 am)
Dewpoint74 °F77 °F (12:00 pm)73 °F (2:00 am)
Humidity78.6 %89 % (12:30 am)64 % (11:00 am)
Barometer29.78 in29.83 in (8:00 am)29.74 in (2:00 pm)
Wind Speed5.5 mph12.7 mph (5:30 pm)
Weather ElementAverage
Visibility7.8 mi
Wind DirectionENE (66.1 °)

Weather ElementTotal
Precipitation---
Cooling Degree Days16.5 (Base 65)
Growing Degree Days31.5 (Base 50)
Averaged from 55 records on February 3, 2013
WEATHER CONDITIONS BREAKOUT
WIND DIRECTION BREAKOUT
WEATHER BY HOUR - FEBRUARY 3, 2013
[ °C ]   °F
Local TimeTemperatureDewpointHumidityBarometerVisibilityWind DirectionWind SpeedGust SpeedPrecipitationEventsConditions
12:30 AM78.8 °F75.2 °F89 %29.77 in6.2 miEast (90°)2.3 mphMostly Cloudy
1:00 AM77.0 °F73.4 °F89 %29.77 in6.2 miVariable1.2 mphMostly Cloudy
1:30 AM77.0 °F73.4 °F89 %29.77 in6.2 miCalmMostly Cloudy
2:00 AM77.0 °F73.0 °F85 %29.77 in9.0 miESE (120°)2.3 mphOvercast
2:00 AM77.0 °F73.4 °F89 %29.77 in6.2 miESE (120°)2.3 mphMostly Cloudy
2:30 AM77.0 °F73.4 °F89 %29.77 in6.2 miVariable1.2 mphMostly Cloudy
3:00 AM77.0 °F73.4 °F89 %29.77 in6.2 miESE (110°)3.5 mphMostly Cloudy
3:30 AM77.0 °F73.4 °F89 %29.77 in6.2 miEast (100°)4.6 mphOvercast
4:00 AM77.0 °F73.4 °F89 %29.77 in6.2 miEast (100°)3.5 mphOvercast
4:30 AM78.8 °F75.2 °F89 %29.77 in6.2 miENE (60°)4.6 mphMostly Cloudy
5:00 AM78.0 °F73.0 °F82 %29.79 in37.0 miEast (100°)3.5 mphClear
5:00 AM77.0 °F73.4 °F89 %29.77 in6.2 miVariable3.5 mphPartly Cloudy
5:30 AM77.0 °F73.4 °F89 %29.77 in6.2 miEast (90°)2.3 mphMostly Cloudy
6:00 AM77.0 °F73.4 °F89 %29.80 in6.2 miNNE (30°)2.3 mphMostly Cloudy
6:30 AM77.0 °F73.4 °F89 %29.80 in6.2 miSouth (180°)9.2 mphMostly Cloudy
7:00 AM78.8 °F75.2 °F89 %29.80 in6.2 miCalmScattered Clouds
7:30 AM78.8 °F73.4 °F83 %29.80 in6.2 miCalmScattered Clouds
8:00 AM80.0 °F74.0 °F79 %29.83 in9.0 miCalmPartly Cloudy
8:00 AM80.6 °F75.2 °F84 %29.83 in6.2 miCalmPartly Cloudy
8:30 AM80.6 °F75.2 °F84 %29.83 in6.2 miNorth (360°)4.6 mphScattered Clouds
9:00 AM82.4 °F75.2 °F79 %29.83 in6.2 miNNE (20°)6.9 mphScattered Clouds
9:30 AM82.4 °F75.2 °F79 %29.83 in6.2 miNNE (20°)9.2 mphPartly Cloudy
10:00 AM82.4 °F75.2 °F79 %29.83 in6.2 miNNE (30°)6.9 mphPartly Cloudy
10:30 AM84.2 °F73.4 °F70 %29.83 in6.2 miNNE (30°)6.9 mphScattered Clouds
11:00 AM84.0 °F74.0 °F64 %29.82 in19.0 miNNE (20°)6.9 mphScattered Clouds
11:00 AM84.2 °F73.4 °F70 %29.80 in6.2 miNNE (20°)6.9 mphPartly Cloudy
11:30 AM86.0 °F73.4 °F66 %29.80 in6.2 miNNE (30°)8.1 mphPartly Cloudy
12:00 PM86.0 °F77.0 °F74 %29.80 in6.2 miNNE (20°)8.1 mphScattered Clouds
12:30 PM86.0 °F75.2 °F70 %29.77 in6.2 miNNE (30°)10.4 mphScattered Clouds
1:00 PM86.0 °F75.2 °F70 %29.77 in6.2 miNNE (30°)10.4 mphScattered Clouds
1:30 PM86.0 °F77.0 °F74 %29.77 in6.2 miNNE (30°)11.5 mphScattered Clouds
2:00 PM85.0 °F75.0 °F65 %29.77 in19.0 miNE (40°)8.1 mphPartly Cloudy
2:00 PM86.0 °F75.2 °F70 %29.74 in6.2 miNE (40°)8.1 mphScattered Clouds
2:30 PM86.0 °F75.2 °F70 %29.74 in6.2 miNE (40°)9.2 mphScattered Clouds
3:00 PM86.0 °F75.2 °F70 %29.74 in6.2 miNNE (30°)8.1 mphScattered Clouds
3:30 PM86.0 °F73.4 °F66 %29.74 in6.2 miNE (40°)9.2 mphPartly Cloudy
4:00 PM86.0 °F75.2 °F70 %29.74 in6.2 miNE (40°)10.4 mphPartly Cloudy
4:30 PM84.2 °F73.4 °F70 %29.74 in6.2 miNE (50°)10.4 mphPartly Cloudy
5:00 PM84.0 °F74.0 °F65 %29.75 in19.0 miNE (40°)10.4 mphScattered Clouds
5:00 PM84.2 °F73.4 °F70 %29.74 in6.2 miNE (40°)10.4 mphPartly Cloudy
5:30 PM82.4 °F73.4 °F74 %29.74 in6.2 miNE (50°)12.7 mphPartly Cloudy
6:00 PM82.4 °F73.4 °F74 %29.74 in6.2 miNE (50°)12.7 mphPartly Cloudy
6:30 PM82.4 °F73.4 °F74 %29.77 in6.2 miNE (50°)10.4 mphPartly Cloudy
7:00 PM82.4 °F73.4 °F74 %29.77 in6.2 miSouth (170°)5.8 mphScattered Clouds
7:30 PM82.4 °F73.4 °F74 %29.77 in6.2 miVariable2.3 mphScattered Clouds
8:00 PM81.0 °F73.0 °F70 %29.80 in12.0 miSW (220°)2.3 mphMostly Cloudy
8:00 PM80.6 °F73.4 °F79 %29.80 in6.2 miVariable2.3 mphMostly Cloudy
8:30 PM80.6 °F73.4 °F79 %29.80 in6.2 miVariable1.2 mphScattered Clouds
9:00 PM80.6 °F73.4 °F79 %29.80 in6.2 miVariable2.3 mphScattered Clouds
9:30 PM80.6 °F73.4 °F79 %29.80 in6.2 miNNW (340°)4.6 mphPartly Cloudy
10:00 PM78.8 °F73.4 °F83 %29.80 in6.2 miEast (80°)3.5 mphScattered Clouds
10:30 PM78.8 °F73.4 °F83 %29.80 in6.2 miEast (80°)2.3 mphScattered Clouds
11:00 PM79.0 °F74.0 °F79 %29.80 in12.0 miEast (100°)4.5 mphScattered Clouds
11:18 PM78.8 °F73.4 °F83 %29.77 in6.2 miSouth (170°)4.6 mphScattered Clouds
11:30 PM78.8 °F73.4 °F83 %29.77 in6.2 miSSE (160°)3.5 mphScattered Clouds
Hourly data recorded from NTAA, located miles away from Hitiaa, French Polynesia







STORIES FROM OUR PARTNERS